Orbital elements of COSMOS 2251 DEB
| Launched | 15 June 1993 |
| Flight ended | – |
| Launch site | Plesetsk Missile and Space Complex, Russia |
| Owner | Commonwealth of Independent States (former USSR) |
| NORAD ID | 40230 |
| Date fetched |
Epoch osculation |
Inc. [°] |
Ecc. | RA asc node [hr] |
Arg Peri. [°] |
Mean anom [°] |
Mean motion [rev/day] |
Abs. mag |
| Date fetched |
Epoch osculation |
Inc. [°] |
Ecc. | RA asc node [hr] |
Arg Peri. [°] |
Mean anom [°] |
Mean motion [rev/day] |
Abs. mag |
| 2026 May 04 17:57 | 2026 Apr 29 13:58:02 | 74.0444 | 0.00168 | 21.8848 | 354.1673 | 36.8407 | 14.50164 | – |
| 2026 May 03 17:57 | 2026 Apr 29 13:58:02 | 74.0444 | 0.00168 | 21.8848 | 354.1673 | 36.8407 | 14.50164 | – |
| 2026 May 02 17:57 | 2026 Apr 29 13:58:02 | 74.0444 | 0.00168 | 21.8848 | 354.1673 | 36.8407 | 14.50164 | – |
| 2026 May 01 17:56 | 2026 Apr 29 13:58:02 | 74.0444 | 0.00168 | 21.8848 | 354.1673 | 36.8407 | 14.50164 | – |
| 2026 Apr 30 17:56 | 2026 Apr 29 13:58:02 | 74.0444 | 0.00168 | 21.8848 | 354.1673 | 36.8407 | 14.50164 | – |
| 2026 Apr 29 17:57 | 2026 Apr 21 09:37:15 | 74.0444 | 0.00165 | 22.9087 | 9.8718 | 36.8407 | 14.50164 | – |
| 2026 Apr 28 17:56 | 2026 Apr 21 09:37:15 | 74.0444 | 0.00165 | 22.9087 | 9.8718 | 36.8407 | 14.50164 | – |
| 2026 Apr 27 17:58 | 2026 Apr 21 09:37:15 | 74.0444 | 0.00165 | 22.9087 | 9.8718 | 36.8407 | 14.50164 | – |
| 2026 Apr 26 17:58 | 2026 Apr 21 09:37:15 | 74.0444 | 0.00165 | 22.9087 | 9.8718 | 36.8407 | 14.50164 | – |
| 2026 Apr 25 17:58 | 2026 Apr 21 09:37:15 | 74.0444 | 0.00165 | 22.9087 | 9.8718 | 36.8407 | 14.50164 | – |
| 2026 Apr 24 17:59 | 2026 Apr 21 09:37:15 | 74.0444 | 0.00165 | 22.9087 | 9.8718 | 36.8407 | 14.50164 | – |
| 2026 Apr 23 17:57 | 2026 Apr 15 09:18:25 | 74.0474 | 0.00165 | 23.6613 | 23.6123 | 36.8407 | 14.50164 | – |
| 2026 Apr 22 17:57 | 2026 Apr 15 09:18:25 | 74.0474 | 0.00165 | 23.6613 | 23.6123 | 36.8407 | 14.50164 | – |
| 2026 Apr 21 17:57 | 2026 Apr 15 09:18:25 | 74.0474 | 0.00165 | 23.6613 | 23.6123 | 36.8407 | 14.50164 | – |
| 2026 Apr 20 17:57 | 2026 Apr 15 09:18:25 | 74.0474 | 0.00165 | 23.6613 | 23.6123 | 36.8407 | 14.50164 | – |
| 2026 Apr 19 17:58 | 2026 Apr 15 09:18:25 | 74.0474 | 0.00165 | 23.6613 | 23.6123 | 36.8407 | 14.50164 | – |
| 2026 Apr 18 17:56 | 2026 Apr 12 10:05:37 | 74.0476 | 0.00163 | 0.0326 | 29.4507 | 36.8407 | 14.50164 | – |
| 2026 Apr 16 17:57 | 2026 Apr 12 10:05:37 | 74.0476 | 0.00163 | 0.0326 | 29.4507 | 36.8407 | 14.50164 | – |
| 2026 Apr 14 17:57 | 2026 Apr 12 10:05:37 | 74.0476 | 0.00163 | 0.0326 | 29.4507 | 36.8407 | 14.50164 | – |
| 2026 Apr 13 17:57 | 2026 Apr 12 10:05:37 | 74.0476 | 0.00163 | 0.0326 | 29.4507 | 36.8407 | 14.50164 | – |
| 2026 Apr 12 17:57 | 2026 Apr 07 12:48:37 | 74.0473 | 0.00163 | 0.6441 | 40.7032 | 36.8407 | 14.50164 | – |
| 2026 Apr 11 17:57 | 2026 Apr 07 12:48:37 | 74.0473 | 0.00163 | 0.6441 | 40.7032 | 36.8407 | 14.50164 | – |
| 2026 Apr 10 17:58 | 2026 Apr 07 12:48:37 | 74.0473 | 0.00163 | 0.6441 | 40.7032 | 36.8407 | 14.50164 | – |
| 2026 Apr 09 18:01 | 2026 Apr 07 12:48:37 | 74.0473 | 0.00163 | 0.6441 | 40.7032 | 36.8407 | 14.50164 | – |
| 2026 Apr 08 17:57 | 2026 Apr 07 12:48:37 | 74.0473 | 0.00163 | 0.6441 | 40.7032 | 36.8407 | 14.50164 | – |
| 2026 Apr 07 17:57 | 2026 Mar 31 13:35:15 | 74.0442 | 0.00159 | 1.5157 | 55.0245 | 36.8407 | 14.50164 | – |